Probability
3 2 1 0 0 0 0 0 0 0 0 0 0 0 0 0 0 0 0 0 0 1 2 2 3 3 2 1 1 2 3 3 2 1 0 1 2 3 3 2 1 0 0 1 2 2 3 3 3
2 1 0 0 0 0 0 0 0 0 0 0 0 0 0 0 0 0 0 0 0 1 1 1 2 3 2 1 0 1 3 3 3 1 0 1 2 3 3 3 1 1 1 0 1 1 2 2 2
1 0 0 0 0 0 0 0 0 0 0 0 0 0 0 0 0 0 0 0 0 0 0 1 1 1 1 1 0 1 2 3 3 2 1 1 3 4 4 4 3 3 2 1 0 0 1 1 1
0 0 0 1 0 0 0 0 0 0 0 0 0 0 0 0 0 0 0 0 0 0 0 0 1 1 1 1 1 1 1 2 3 3 3 2 3 5 6 6 5 3 2 1 0 0 1 1 1
0 0 0 0 0 0 0 0 0 0 0 0 0 0 0 0 1 1 0 0 0 0 0 0 1 3 4 3 2 0 0 1 3 5 5 4 4 6 7 7 6 4 1 0 0 0 1 1 2
0 0 0 0 0 0 0 0 0 0 0 0 0 0 0 1 2 2 1 0 0 0 0 1 3 5 7 6 3 1 1 2 4 5 5 5 6 8 8 7 6 5 3 1 1 1 2 3 5
0 0 0 0 0 0 0 0 0 0 0 0 0 0 0 1 2 3 1 0 0 0 0 1 2 4 6 5 3 2 2 3 5 6 5 4 6 8 9 8 6 5 4 3 2 3 4 6 6
0 0 0 0 0 0 0 0 0 0 0 0 0 0 0 1 2 3 2 1 1 0 0 0 1 1 2 2 3 3 4 4 5 5 4 4 4 6 8 8 6 4 3 3 3 4 5 6 6
0 0 0 0 0 0 0 1 1 0 0 0 0 0 0 1 2 3 3 3 2 1 0 0 0 0 0 1 2 3 3 2 2 2 2 2 2 4 6 7 6 5 4 4 4 4 4 5 6
0 0 0 0 0 0 0 1 1 1 0 0 0 0 0 1 2 3 3 3 3 2 1 0 0 0 0 0 1 1 1 1 0 0 0 1 1 3 5 6 6 6 5 5 5 4 4 4 4
0 0 0 0 0 0 0 1 1 1 0 0 0 1 1 1 1 2 3 3 3 3 2 1 0 0 0 0 0 0 0 0 0 0 0 1 2 3 6 7 6 5 5 5 5 5 4 3 3
0 0 0 0 0 0 0 0 0 0 0 0 0 1 2 1 0 1 1 3 3 3 3 1 1 1 1 0 0 0 0 0 0 0 1 2 3 4 6 7 5 4 4 4 5 4 3 2 2
0 0 0 0 0 0 0 0 0 0 0 0 0 1 1 1 0 0 1 2 3 3 3 3 2 2 2 1 1 1 1 0 0 0 1 3 4 5 6 6 4 3 4 4 4 3 1 1 1
1 0 0 0 0 0 0 0 0 0 0 0 0 0 0 0 0 0 0 2 3 3 3 3 3 3 3 3 2 2 1 0 0 0 1 2 4 6 6 5 3 3 3 2 2 1 0 0 1
1 0 0 0 0 1 1 1 0 0 0 0 0 0 0 0 0 0 0 2 3 3 4 4 4 4 3 3 3 3 1 0 0 0 0 1 3 4 4 3 2 2 2 1 0 0 0 1 2
1 0 0 0 0 2 2 1 0 0 0 0 0 0 0 0 0 0 0 1 3 4 4 5 5 5 4 4 4 3 1 0 0 0 0 1 2 2 1 1 1 1 1 0 0 0 0 1 2
0 0 0 0 0 1 1 1 0 0 0 0 0 1 1 1 0 0 0 1 2 3 4 4 5 6 6 5 5 3 1 0 1 1 1 1 1 0 1 1 1 0 0 0 0 0 0 0 1
0 0 0 0 0 0 0 0 0 0 0 0 0 1 2 2 1 0 0 0 1 3 3 3 4 5 6 5 4 3 2 2 2 3 3 1 0 0 1 1 1 1 0 0 0 0 0 0 0
0 0 0 0 0 0 0 0 0 0 0 0 0 1 2 3 2 1 1 1 1 3 3 3 3 4 4 4 3 3 3 3 3 4 4 3 1 0 1 2 2 1 0 0 0 0 0 0 0
0 0 0 0 0 0 0 0 0 0 0 0 0 1 2 3 3 2 2 2 3 3 3 3 3 3 2 1 2 3 3 3 3 3 4 3 2 1 0 1 1 1 0 0 0 0 0 0 0
0 0 0 0 0 0 0 0 0 0 0 0 0 0 1 2 3 3 3 3 3 3 3 3 3 2 1 0 1 2 3 4 4 4 4 3 2 1 0 0 0 0 0 0 0 0 0 0 0
0 0 0 0 0 0 0 0 0 0 0 0 0 0 0 1 3 4 3 3 3 3 3 3 3 2 1 0 1 2 3 4 5 5 4 3 1 1 0 0 0 0 0 0 0 0 0 0 0
0 0 0 0 0 0 0 0 0 0 0 0 0 0 0 1 2 4 4 3 3 3 4 3 3 2 1 1 2 3 3 4 4 4 4 3 1 1 0 0 0 0 0 0 0 0 0 1 1
0 0 0 0 0 0 0 0 0 0 0 0 0 0 0 1 2 3 3 3 3 4 4 4 3 3 2 2 3 4 4 4 4 4 4 4 3 3 2 1 1 1 1 1 1 1 1 2 2
0 0 0 0 0 0 0 0 0 0 0 0 1 1 1 2 3 3 3 3 3 4 4 4 3 4 4 4 6 7 7 7 7 7 7 7 7 7 6 5 4 3 3 3 2 2 1 2 2
0 0 0 0 0 0 0 0 0 0 0 0 1 1 2 4 5 5 4 4 4 4 5 4 4 4 5 6 7 8 9 10 11 12 11 11 12 11 11 10 8 6 5 4 4 3 1 1 1
0 0 0 0 0 0 0 0 0 0 0 0 0 1 2 3 5 5 5 5 5 5 5 6 5 5 5 6 8 8 10 12 13 13 13 13 13 13 13 12 10 8 7 6 5 3 1 1 2
0 0 0 0 0 0 0 0 0 0 0 0 0 0 1 2 4 4 5 5 5 4 6 6 6 6 6 7 8 9 10 12 12 12 12 11 11 12 12 12 12 11 9 8 6 4 3 3 3
0 0 0 0 0 0 0 0 0 0 0 0 1 0 0 1 3 4 4 4 4 4 6 7 7 6 7 8 9 11 12 12 12 12 11 10 10 11 12 12 13 13 12 10 8 5 4 4 5
0 0 0 0 0 0 0 0 0 0 0 0 1 0 0 1 2 4 5 5 4 4 6 7 7 6 7 8 11 12 12 12 12 12 11 10 11 11 13 13 13 14 13 11 9 6 5 5 5
Wind_Speed
7 5 2 1 2 3 2 2 1 2 2 2 3 4 4 3 1 0 1 3 2 2 1 3 5 6 8 8 9 9 9 9 9 10 11 11 11 11 11 11 11 10 10 10 10 9 9 9 9
5 4 1 1 4 2 2 2 2 2 2 3 4 4 4 3 2 2 1 1 2 3 2 3 6 7 7 7 8 8 9 9 9 9 10 10 11 11 11 11 11 10 10 9 9 9 8 8 8
5 3 1 3 2 1 1 1 2 3 3 2 3 4 3 2 2 1 1 3 3 2 1 3 7 7 7 7 7 8 8 8 8 9 9 10 10 10 11 11 10 10 9 9 9 8 8 7 7
2 1 2 3 1 1 2 1 3 4 3 4 3 4 3 3 1 1 4 5 4 2 1 2 7 7 7 7 7 7 8 8 8 9 9 9 10 10 10 10 10 9 9 8 8 8 7 6 6
1 2 4 2 2 1 1 2 3 3 2 3 4 4 3 4 4 5 6 5 4 2 1 2 7 7 7 7 7 7 7 8 8 8 9 9 10 10 10 10 9 9 8 8 7 7 7 6 6
2 3 3 1 2 2 1 2 3 4 3 3 4 3 2 2 4 4 4 4 3 3 2 2 5 6 6 6 6 6 7 7 7 8 8 9 9 9 9 9 9 8 8 7 6 5 6 5 5
3 3 1 1 1 1 1 2 3 3 3 2 3 3 1 2 3 4 4 4 4 3 3 2 2 2 4 5 5 6 6 7 7 8 8 8 8 8 8 8 8 8 7 7 6 5 5 5 4
3 3 1 1 0 1 1 2 2 3 3 3 3 4 3 3 4 5 5 5 4 3 3 2 2 2 2 2 4 6 6 7 7 8 8 7 7 7 7 6 7 7 7 6 6 5 4 5 4
2 3 0 2 2 2 2 2 2 3 4 3 2 2 3 7 7 6 5 4 3 2 2 2 2 2 2 2 3 4 5 6 5 5 7 5 3 3 3 5 6 6 6 6 6 5 4 4 3
3 2 4 3 3 3 2 3 3 3 3 2 3 5 7 8 7 6 5 4 2 2 1 2 2 2 2 2 2 2 2 3 2 2 2 2 2 2 3 4 6 5 5 5 5 4 3 2 1
3 4 3 2 2 4 3 2 3 5 1 3 6 8 9 7 6 6 5 4 3 2 2 1 1 2 2 1 2 2 2 2 2 2 2 2 2 1 1 1 1 1 2 2 2 2 1 1 1
2 3 2 1 1 3 3 3 3 2 3 4 8 10 9 8 7 6 6 4 3 2 2 1 1 2 1 1 1 1 1 1 1 1 2 2 2 2 1 1 1 1 1 1 1 1 1 2 1
1 2 1 1 2 3 4 3 3 1 3 7 9 9 8 7 6 4 4 4 3 3 2 2 2 2 1 1 1 1 1 1 1 1 1 2 2 2 2 1 1 1 1 1 1 1 1 1 1
1 0 2 1 3 2 4 2 2 1 6 8 8 7 7 7 6 4 4 4 4 4 3 3 2 2 2 1 1 1 1 1 1 1 1 2 2 2 2 1 1 1 1 1 1 1 2 1 1
2 3 4 2 2 1 4 3 1 3 6 7 6 6 6 5 5 5 5 5 5 4 3 3 3 2 2 2 1 1 1 1 1 0 1 1 2 2 2 2 1 1 1 2 1 1 1 1 1
3 3 2 3 1 2 4 2 3 5 7 6 6 5 5 5 5 5 4 4 4 4 4 3 3 3 2 2 1 1 1 1 1 1 1 1 1 2 2 2 1 1 2 2 2 1 1 1 1
4 1 1 3 0 2 2 3 3 5 6 6 5 5 5 4 4 4 5 5 4 4 4 4 3 3 3 2 1 1 1 1 0 0 1 1 1 2 2 2 1 2 2 2 2 1 2 1 1
2 2 2 3 1 2 2 4 3 5 6 6 5 5 5 6 7 5 5 5 4 4 3 3 2 2 2 2 1 1 1 0 0 0 1 1 1 2 2 2 2 2 2 1 1 1 1 1 1
3 2 3 3 2 2 3 4 5 5 5 5 5 5 6 7 5 4 5 5 4 3 3 4 3 2 2 1 1 1 1 1 0 1 1 1 1 2 2 2 2 2 2 2 2 2 2 1 1
3 2 2 3 1 2 1 4 4 5 7 7 8 7 7 5 4 5 5 5 5 5 5 4 4 3 3 2 2 2 1 1 1 1 0 1 2 2 2 3 3 3 3 3 2 2 2 1 1
2 5 4 3 2 3 2 5 3 2 3 3 4 5 6 7 7 7 7 7 6 6 6 6 5 4 3 3 2 1 1 1 1 0 0 1 2 2 2 3 3 3 3 3 3 3 3 1 1
4 5 5 3 2 2 1 2 6 3 3 3 5 5 7 7 6 7 7 7 8 7 6 5 5 4 4 4 3 3 2 2 2 1 1 0 0 1 2 3 3 3 3 3 3 3 2 3 2
5 1 3 3 3 1 2 1 7 2 4 7 7 7 7 7 7 9 9 9 7 6 6 5 4 4 4 4 5 4 3 2 1 0 1 0 0 0 1 2 2 2 2 2 2 2 3 2 2
4 6 6 6 5 1 3 3 6 4 6 6 6 7 7 6 6 7 7 6 5 5 5 5 5 4 4 4 4 5 4 3 2 1 1 1 1 0 1 2 2 2 2 2 2 2 3 2 2
5 6 4 5 4 5 2 2 8 7 6 7 7 7 7 6 6 6 7 7 6 7 6 6 6 5 4 4 4 5 5 4 4 3 3 2 1 2 2 2 2 2 2 2 2 2 2 2 2
4 8 7 5 4 5 1 4 8 5 4 5 5 5 4 5 6 7 8 8 7 8 7 7 6 5 5 5 4 4 4 3 3 3 3 3 3 3 3 3 2 2 2 2 2 2 2 2 2
5 3 5 7 2 1 4 6 8 3 3 3 3 3 4 5 7 7 7 7 7 7 7 7 7 5 5 5 4 4 4 3 3 3 3 2 2 3 3 3 3 2 2 2 2 2 2 2 2
5 7 6 6 4 2 4 4 5 6 6 5 4 4 4 4 5 5 6 6 6 6 6 6 6 6 5 5 5 4 4 4 3 2 3 2 3 2 3 3 3 2 2 2 2 2 1 2 2
3 4 5 4 5 5 3 7 5 6 5 5 5 4 4 4 5 5 5 5 5 5 5 6 6 5 4 4 4 4 4 3 3 3 3 2 2 3 3 3 3 2 2 2 2 2 2 2 2
4 5 7 5 3 4 3 8 4 4 4 3 4 3 3 3 4 4 5 5 5 5 5 6 6 6 6 5 4 4 4 3 3 3 3 2 2 2 3 3 3 3 2 2 3 3 2 3 3
Wind_Direction
165 156 152 140 53 46 5 324 56 41 43 29 62 73 86 69 81 170 295 130 123 126 155 151 137 129 132 135 138 141 141 139 143 149 150 150 152 152 151 149 148 146 143 141 140 139 139 141 145
152 160 180 66 71 49 331 320 59 56 121 123 67 55 61 52 47 94 104 146 135 137 145 151 141 134 133 135 140 143 142 141 146 152 151 152 152 152 152 151 149 148 146 144 141 142 144 143 145
165 190 79 57 63 142 288 343 94 84 93 66 60 49 57 61 71 130 171 135 117 121 133 162 144 143 140 136 139 143 143 145 151 154 151 152 152 153 152 151 150 149 146 144 143 144 140 138 138
160 73 51 61 37 241 181 161 121 108 60 47 80 65 49 35 65 119 114 122 114 105 110 159 140 140 138 136 138 138 142 147 152 153 150 152 155 155 154 152 149 146 143 143 143 145 141 139 135
91 74 48 25 328 325 105 131 119 107 87 60 81 81 36 9 63 95 107 117 113 91 75 118 124 127 130 132 135 136 139 146 149 150 150 152 152 150 148 150 148 146 143 141 142 145 146 143 136
63 63 62 3 334 7 57 102 106 89 90 85 90 87 39 43 83 105 104 102 99 93 72 85 118 121 123 127 133 136 139 144 148 149 149 149 148 147 146 150 147 146 146 143 139 137 142 140 139
98 88 111 231 324 12 114 113 108 107 99 117 116 96 52 76 103 109 96 88 81 79 72 56 67 107 123 126 130 135 138 137 139 143 144 146 144 145 146 146 146 143 141 140 137 133 145 145 142
135 103 37 302 211 266 136 99 87 104 101 110 113 133 175 173 123 101 86 76 71 66 61 56 49 47 58 101 124 130 132 130 130 139 142 144 147 148 149 147 148 149 146 142 142 138 138 144 142
117 73 260 233 194 215 134 103 78 80 97 90 86 128 147 134 122 107 89 73 75 78 54 53 51 50 51 66 106 122 126 123 124 134 142 142 137 137 149 151 153 156 154 150 146 140 137 148 148
107 137 232 222 189 168 131 120 134 97 87 78 73 82 112 126 132 131 131 137 145 143 94 56 60 54 53 68 69 82 91 91 89 97 120 114 114 134 148 156 168 164 156 154 142 137 134 122 100
159 200 236 252 192 148 134 119 115 127 161 190 164 146 138 139 143 149 157 164 170 158 138 90 81 66 70 65 70 71 75 79 84 100 111 112 109 115 118 117 160 148 145 128 113 105 100 98 85
175 251 229 246 150 133 137 131 112 150 202 169 155 149 148 154 161 169 172 173 160 138 158 129 114 87 79 82 80 85 95 100 106 112 124 126 123 117 121 118 111 105 114 111 108 105 100 101 109
172 283 292 157 111 119 108 108 115 54 110 120 132 141 154 163 170 178 174 166 158 161 172 165 145 125 110 93 97 99 106 118 118 116 135 147 144 143 136 132 125 122 108 114 112 110 107 106 104
182 85 2 54 99 114 111 86 94 146 126 127 142 156 166 172 173 167 170 176 179 182 184 171 156 149 127 122 119 102 104 112 100 113 146 149 151 149 144 141 138 135 135 138 131 136 131 122 119
81 55 14 12 74 121 102 33 252 168 140 145 160 168 175 182 180 186 187 188 188 186 181 177 167 151 146 149 150 139 118 112 129 149 133 143 155 153 152 146 159 167 149 139 125 119 116 127 116
49 55 9 304 69 100 106 263 258 156 150 164 173 177 184 194 197 198 186 183 184 179 179 182 172 160 166 164 160 146 124 131 157 148 133 154 165 164 157 155 180 167 143 140 142 142 118 109 106
35 65 264 299 360 114 126 243 242 163 160 177 184 187 192 204 215 208 192 185 180 178 172 172 172 165 176 176 154 136 112 123 168 151 169 185 180 174 167 171 179 154 138 141 161 133 136 129 120
219 202 239 240 239 123 180 248 237 182 177 188 191 192 198 209 218 204 193 184 175 172 161 160 161 166 163 146 110 77 64 12 330 207 221 198 188 177 171 175 176 157 141 140 147 139 120 126 132
172 176 248 258 216 149 222 254 243 195 194 202 203 202 210 221 214 188 184 176 164 166 163 168 168 171 156 143 147 164 216 251 275 244 231 206 190 181 171 171 159 159 159 167 159 146 138 121 115
151 172 250 301 90 149 258 285 256 201 207 207 206 211 214 215 196 187 182 179 181 184 183 180 182 175 179 180 168 164 155 180 213 248 243 208 188 178 175 169 168 166 159 154 158 150 151 155 139
203 191 205 214 19 43 54 331 299 262 224 220 222 218 215 209 204 198 190 190 189 193 192 192 188 179 179 172 133 98 79 47 30 309 269 245 196 176 166 164 162 164 165 172 176 166 158 165 162
246 223 183 162 100 315 79 288 292 274 269 240 236 227 223 216 201 194 191 193 197 200 191 187 184 180 176 164 157 160 169 199 223 219 225 265 183 167 160 159 160 162 164 169 182 171 171 161 180
216 149 121 116 122 32 6 166 288 324 270 258 240 230 224 212 203 195 195 196 196 188 183 184 179 182 178 174 174 170 185 206 211 172 146 184 139 149 151 154 153 163 171 174 177 171 174 179 180
137 69 53 50 71 349 243 174 278 243 234 253 244 233 225 213 205 196 190 181 182 177 179 175 175 189 187 183 182 181 184 183 171 181 191 208 202 206 185 165 163 171 182 185 188 185 179 187 182
95 89 36 4 11 257 252 185 251 248 233 232 237 232 224 209 200 190 183 185 186 183 182 175 178 190 190 186 190 192 188 183 189 196 199 199 205 213 214 197 184 182 196 200 189 188 190 192 190
166 141 155 188 221 273 312 233 254 261 254 246 241 237 223 203 198 195 194 192 193 190 183 176 180 193 192 191 198 197 192 192 199 197 194 199 209 214 201 192 189 187 188 194 189 197 207 198 210
133 152 158 133 156 282 286 289 301 316 322 294 269 251 235 212 199 196 191 187 187 185 185 183 182 189 194 194 192 192 193 200 204 198 199 208 213 208 194 191 189 189 186 190 181 198 209 192 211
128 140 101 116 145 242 290 281 269 294 293 296 287 263 251 227 209 198 190 188 190 189 185 181 185 191 194 195 195 194 195 200 202 201 211 214 216 212 194 202 195 192 190 192 191 200 204 184 210
92 89 102 113 145 158 241 268 234 233 246 258 265 261 244 217 206 200 197 185 181 182 180 184 189 186 186 193 194 190 191 194 189 203 222 221 215 203 197 196 188 190 200 195 191 206 194 192 207
145 156 143 147 201 168 180 264 273 242 253 253 267 274 258 223 208 198 190 176 171 180 188 194 196 194 195 191 190 197 193 182 187 208 219 209 202 194 190 180 180 190 201 195 197 208 203 200 206